Regional Weather Roundup
Issued by NWS

Home | Current Version | Previous Version | Graphics & Text | Print | Product List | Glossary On
Versions: 1 2 3 4 5 6 7 8 9 10 11 12 13 14 15 16 17 18 19 20 21 22 23 24 25 26 27 28
000
ASUS45 KBOI 280810
RWRID

IDAHO REGIONAL WEATHER ROUNDUP
NATIONAL WEATHER SERVICE BOISE ID
200 AM MDT WED JUN 28 2017

NOTE: "FAIR" INDICATES FEW OR NO CLOUDS BELOW 12000 FEET
WITH NO SIGNIFICANT WEATHER AND/OR OBSTRUCTIONS TO VISIBILITY

IDZ012-014-280900-
SOUTHWEST IDAHO


CITY           SKY/WX    TMP DP  RH WIND       PRES   REMARKS
BOISE          PTCLDY    69  45  41 SE12      29.79S
CALDWELL       PTCLDY    67  52  58 W12       29.80R
MOUNTAIN HOME  PTCLDY    66  51  58 W7        29.80R
$$

IDZ016-017-280900-
SOUTHCENTRAL IDAHO


CITY           SKY/WX    TMP DP  RH WIND       PRES   REMARKS
BURLEY         PTCLDY    62  48  60 VRB3      29.88R
JEROME         MOCLDY    65  48  54 N13       29.87F
TWIN FALLS     PTCLDY    61  49  64 W5        29.90R
$$

IDZ019>023-280900-
SOUTHEAST IDAHO


CITY           SKY/WX    TMP DP  RH WIND       PRES   REMARKS
IDAHO FALLS    CLEAR     51  48  89 N7        29.92F
POCATELLO      CLEAR     55  49  80 N10       29.91F
REXBURG        MOCLDY    53  48  83 N7        29.94S
$$

IDZ006-010-011-018-031-032-280900-
CENTRAL IDAHO MOUNTAINS


CITY           SKY/WX    TMP DP  RH WIND       PRES   REMARKS
MCCALL         PTCLDY    55  46  71 CALM      29.93F
HAILEY         DRIZZLE   59  41  51 NW7       29.96S
STANLEY          N/A     51  42  71 W3        30.05F
SALMON         CLOUDY    57  46  67 SW3       29.93S
CHALLIS        CLOUDY    56  46  69 N3        30.01R
$$

IDZ002-004-006-007-026-280900-
NORTHERN IDAHO


CITY           SKY/WX    TMP DP  RH WIND       PRES   REMARKS
LEWISTON       CLEAR     61  45  55 SE6       29.79F
LOWELL           N/A     59  51  75 CALM      29.83S
COEUR D`ALENE  PTCLDY    58  49  72 S8        29.81S
MULLAN PASS    PTCLDY    52  36  54 VRB3      29.96S
$$




USA.gov is the U.S. government's official web portal to all federal, state and local government web resources and services.